[[{"header":{"parameterUnit":"m.s-1","parameterCategory":2,"la1":30.2991,"la2":30.254,"lo1":-89.0895,"lo2":-89.0444,"dy":0.0017,"dx":0.0017,"nx":28,"ny":28,"refTime":"2023-10-28T09:00:00:Z","depth":"0","parameterNumber":2,"parameterNumberName":"U-component_of_CURRENTS"},"data":[0,0,0,0,0,0,0,0,0,0,0,0,0,0,0,0,0,0,0,0,0,0,0,0,0,0,0,0,0,0,0,0,0,0,0,0,0,0,0,0,0,0,0,0,0,0,0,0,0,0,0,0,0,0,0,0,0,0,0.2302,0.2302,0,0.2334,0.2334,0.2334,0.2329,0.2329,0.2328,0.2328,0.234,0.2341,0.2342,0,0,0,0,0,0,0,0,0,0,0,0,0,0.2251,0.2252,0.2302,0.2302,0.2303,0.2334,0.2334,0.2335,0.2329,0.2329,0.2328,0.2328,0.234,0.2341,0.2342,0,0,0,0,0,0,0,0,0,0,0,0,0,0.2276,0.2252,0.2302,0.2305,0.2305,0.2334,0.2334,0.2335,0.2329,0.2329,0.2328,0.2327,0.234,0.2341,0.2342,0.2363,0,0,0.2345,0.2346,0,0,0,0,0,0,0,0,0.2275,0.2278,0.2304,0.2305,0.2305,0.2328,0.2321,0.2343,0.233,0.2319,0.2328,0.2327,0.2335,0.2337,0.2343,0.2363,0.2364,0.2346,0.2346,0.2347,0.2347,0,0,0,0,0,0,0,0.2273,0.2276,0.2314,0.2305,0.2305,0.231,0.2312,0.2325,0.233,0.232,0.232,0.2325,0.2335,0.2342,0.2343,0.2364,0.2346,0.2347,0.2347,0.2348,0.2409,0.241,0,0,0,0,0,0,0.2271,0.2275,0.2313,0.2315,0.2289,0.2311,0.2314,0.232,0.233,0.2331,0.2326,0.2325,0.2341,0.2342,0.2344,0.2387,0.2347,0.2348,0.2348,0.2408,0.2409,0.241,0,0,0,0,0,0,0.227,0.2274,0.2311,0.2296,0.2301,0.2313,0.232,0.2321,0.233,0.2335,0.2335,0.2333,0.234,0.2342,0.2359,0.2386,0.2348,0.2349,0.2407,0.2408,0.241,0.2461,0,0,0,0,0,0,0.2268,0.2274,0.2279,0.2296,0.2302,0.2335,0.2321,0.2323,0.2335,0.2334,0.2342,0.2342,0.234,0.2357,0.236,0.2387,0.235,0.2406,0.2407,0.2409,0.2458,0.2464,0.2469,0,0,0,0,0,0.2266,0.2276,0.2279,0.2284,0.2309,0.2335,0.2339,0.2344,0.2336,0.2347,0.2349,0.2342,0.2371,0.2359,0.2362,0.239,0.2405,0.2407,0.2409,0.2456,0.2463,0.2469,0,0,0,0,0,0,0.2248,0.2277,0.2281,0.2296,0.2318,0.2335,0.2346,0.2349,0.236,0.2358,0.2354,0.2355,0.2382,0.2377,0.2364,0.2412,0.2387,0.239,0.2422,0.2428,0.2434,0.2441,0.2351,0,0,0,0,0,0.225,0.227,0.2293,0.2307,0.2318,0.2333,0.2344,0.2351,0.2363,0.2367,0.2369,0.2376,0.2394,0.2402,0.2413,0.244,0.2485,0.2459,0.2464,0.2469,0.2477,0.2553,0.2567,0.2417,0.2417,0.2417,0,0,0.2246,0.2265,0.2275,0.2306,0.2321,0.2351,0.2338,0.2361,0.2386,0.2368,0.2393,0.2395,0.2405,0.2435,0.2446,0.2434,0.2546,0.2472,0.2476,0.2481,0.2557,0.2572,0.2585,0.2418,0.2418,0.2418,0,0,0.2258,0.2267,0.2294,0.2317,0.2349,0.2363,0.2372,0.2393,0.2401,0.2427,0.2424,0.2442,0.2459,0.2477,0.2488,0.2531,0.2572,0.2533,0.257,0.2644,0.2658,0.267,0.2798,0.282,0.2536,0.2537,0.2537,0,0.2252,0.2288,0.2305,0.2338,0.2362,0.2371,0.2407,0.2422,0.2445,0.2463,0.244,0.2486,0.2484,0.2541,0.2549,0.2546,0.2612,0.2545,0.2654,0.2666,0.2678,0.2805,0.283,0.2539,0.2539,0.2539,0.2538,0,0.2293,0.2319,0.2336,0.2386,0.2414,0.2443,0.2472,0.2493,0.2498,0.2517,0.2561,0.2558,0.2594,0.2591,0.258,0.2661,0.2694,0.2654,0.2641,0.2697,0.2827,0.2852,0.2543,0.2542,0.2541,0.2541,0,0,0.2285,0.2352,0.2359,0.2391,0.2442,0.2471,0.2515,0.2566,0.2607,0.2614,0.2677,0.2682,0.2686,0.2698,0.2694,0.2736,0.2879,0.2729,0.2732,0.2865,0.3101,0.3149,0.3181,0.2861,0.2864,0.2867,0.3179,0,0.2312,0.2381,0.2411,0.2475,0.2511,0.2541,0.2588,0.2636,0.2664,0.2724,0.2736,0.2788,0.273,0.2757,0.2794,0.2856,0.2939,0.2802,0.3019,0.3027,0.3068,0.3208,0.3107,0.3377,0.3203,0.3208,0.3211,0,0.2344,0.2388,0.2457,0.2529,0.2549,0.259,0.2673,0.2718,0.2799,0.2825,0.2875,0.2896,0.298,0.2907,0.3068,0.2989,0.3058,0.3094,0.3106,0.3144,0.3119,0.3282,0.3429,0.3346,0.3249,0.3246,0.3243,0,0.2339,0.2418,0.2474,0.2499,0.2584,0.2623,0.267,0.2748,0.28,0.2905,0.2967,0.3048,0.3126,0.3192,0.3277,0.3191,0.3471,0.3366,0.3489,0.3496,0.3449,0.3445,0.3541,0.3501,0.35,0.3499,0.3498,0,0.2354,0.2395,0.2477,0.2506,0.2574,0.2639,0.2714,0.277,0.2877,0.2967,0.3025,0.3128,0.3196,0.3348,0.3381,0.3561,0.358,0.3551,0.3587,0.3469,0.3464,0.3416,0.3353,0.3511,0.3508,0.3506,0.3504,0,0.2335,0.2388,0.245,0.2543,0.2569,0.2621,0.2722,0.2783,0.2894,0.3024,0.3075,0.3249,0.346,0.3565,0.3736,0.3733,0.3781,0.3918,0.3811,0.3827,0.3791,0.3734,0.3732,0.3613,0.4096,0.4099,0.4102,0,0.2331,0.2362,0.2457,0.2489,0.2527,0.2603,0.2654,0.2768,0.2846,0.3095,0.3173,0.3433,0.3586,0.3904,0.3994,0.416,0.3962,0.4136,0.3917,0.3836,0.3799,0.3573,0.3452,0.3909,0.3909,0.391,0.3911,0,0.2308,0.2344,0.2391,0.2461,0.2517,0.2574,0.2666,0.2732,0.2902,0.3037,0.3263,0.3416,0.3768,0.3911,0.4158,0.4207,0.3936,0.4154,0.408,0.3693,0.3443,0.3329,0.3696,0.3917,0.3916,0.3916,0.3915,0.3915,0.2277,0.2296,0.2359,0.242,0.2479,0.2536,0.2552,0.2684,0.2811,0.3003,0.3235,0.3436,0.3748,0.4076,0.4112,0.4151,0.4035,0.4023,0.3987,0.3784,0.357,0.3991,0.4223,0.4224,0.4225,0.4226,0.4227,0,0.2226,0.2253,0.231,0.2365,0.2394,0.2455,0.2547,0.2557,0.2667,0.2918,0.31,0.3456,0.3656,0.386,0.4072,0.3991,0.3715,0.3896,0.3523,0.3426,0.3848,0.3737,0.386,0.386,0.386,0.386,0.386,0.386,0.2193,0.2212,0.2244,0.226,0.2296,0.2281,0.2305,0.236,0.2495,0.2714,0.2925,0.315,0.3573,0.389,0.3919,0.3829,0.3501,0.3404,0.3336,0.3622,0.3627,0.3631,0.3511,0.3584,0.3584,0.2737,0.2732,0.2727]},{"header":{"parameterUnit":"m.s-1","parameterCategory":2,"la1":30.2991,"la2":30.254,"lo1":-89.0895,"lo2":-89.0444,"dy":0.0017,"dx":0.0017,"nx":28,"ny":28,"refTime":"2023-10-28T09:00:00:Z","depth":"0","parameterNumber":3,"parameterNumberName":"V-component_of_CURRENTS"},"data":[0,0,0,0,0,0,0,0,0,0,0,0,0,0,0,0,0,0,0,0,0,0,0,0,0,0,0,0,0,0,0,0,0,0,0,0,0,0,0,0,0,0,0,0,0,0,0,0,0,0,0,0,0,0,0,0,0,0,-0.048,-0.0481,0,-0.0549,-0.0549,-0.055,-0.0612,-0.0613,-0.0614,-0.0614,-0.0681,-0.0682,-0.0683,0,0,0,0,0,0,0,0,0,0,0,0,0,-0.0415,-0.0416,-0.048,-0.0481,-0.0482,-0.0548,-0.0549,-0.055,-0.0612,-0.0613,-0.0614,-0.0615,-0.0681,-0.0682,-0.0684,0,0,0,0,0,0,0,0,0,0,0,0,0,-0.0459,-0.0416,-0.048,-0.0521,-0.0525,-0.0548,-0.0549,-0.055,-0.0612,-0.0613,-0.0614,-0.0615,-0.0681,-0.0682,-0.0684,-0.067,0,0,-0.0689,-0.0689,0,0,0,0,0,0,0,0,-0.0456,-0.0461,-0.0514,-0.0518,-0.0523,-0.0574,-0.0551,-0.059,-0.0611,-0.0578,-0.0614,-0.0616,-0.0645,-0.0649,-0.0659,-0.0673,-0.0676,-0.0689,-0.069,-0.069,-0.0691,0,0,0,0,0,0,0,-0.0453,-0.0459,-0.0507,-0.0515,-0.052,-0.0541,-0.0548,-0.0559,-0.0603,-0.0581,-0.0586,-0.0594,-0.0647,-0.0657,-0.0661,-0.0677,-0.0689,-0.069,-0.0691,-0.0692,-0.0698,-0.0698,0,0,0,0,0,0,-0.0444,-0.0456,-0.0504,-0.0509,-0.0493,-0.0541,-0.0549,-0.0556,-0.0604,-0.0612,-0.0593,-0.0597,-0.0654,-0.0659,-0.0663,-0.066,-0.069,-0.0692,-0.0693,-0.0699,-0.0698,-0.0697,0,0,0,0,0,0,-0.0442,-0.0448,-0.0502,-0.0484,-0.0493,-0.0541,-0.0548,-0.0556,-0.0566,-0.0613,-0.0622,-0.0594,-0.0655,-0.0661,-0.0673,-0.0663,-0.0692,-0.0694,-0.07,-0.0699,-0.0698,-0.0646,0,0,0,0,0,0,-0.044,-0.0446,-0.0443,-0.0484,-0.0493,-0.0506,-0.0547,-0.0557,-0.057,-0.0575,-0.0616,-0.0624,-0.0656,-0.067,-0.0674,-0.0665,-0.0695,-0.0701,-0.07,-0.0698,-0.0649,-0.0643,-0.0638,0,0,0,0,0,-0.0437,-0.0432,-0.0443,-0.0449,-0.0489,-0.0506,-0.0512,-0.055,-0.0568,-0.0564,-0.0597,-0.0623,-0.0664,-0.0671,-0.0676,-0.0667,-0.0702,-0.07,-0.0698,-0.0651,-0.0644,-0.0639,0,0,0,0,0,0,-0.0393,-0.0438,-0.0452,-0.0457,-0.0474,-0.0516,-0.0521,-0.054,-0.0561,-0.0569,-0.0612,-0.0621,-0.063,-0.0649,-0.0655,-0.0664,-0.0687,-0.0686,-0.0649,-0.0643,-0.0638,-0.0621,-0.0696,0,0,0,0,0,-0.0382,-0.0393,-0.0429,-0.0428,-0.044,-0.0475,-0.0485,-0.0507,-0.0534,-0.0546,-0.0573,-0.0602,-0.0625,-0.0635,-0.0657,-0.0654,-0.0664,-0.0652,-0.0647,-0.0642,-0.0631,-0.0654,-0.0651,-0.0692,-0.0692,-0.0692,0,0,-0.036,-0.0388,-0.0391,-0.0419,-0.0441,-0.0446,-0.0484,-0.0495,-0.0495,-0.0547,-0.0554,-0.0584,-0.0621,-0.0629,-0.0633,-0.0644,-0.0629,-0.064,-0.0636,-0.0627,-0.0652,-0.0648,-0.0645,-0.0691,-0.0691,-0.0691,0,0,-0.0325,-0.0351,-0.035,-0.0367,-0.0396,-0.0418,-0.0415,-0.0449,-0.0464,-0.047,-0.0513,-0.0533,-0.0559,-0.0588,-0.0606,-0.058,-0.0603,-0.0586,-0.0545,-0.0568,-0.0565,-0.0562,-0.054,-0.0536,-0.0581,-0.0581,-0.0581,0,-0.0291,-0.0302,-0.0346,-0.0352,-0.0358,-0.04,-0.0388,-0.0409,-0.0438,-0.0438,-0.0464,-0.0504,-0.0541,-0.0552,-0.0553,-0.0569,-0.0571,-0.0567,-0.0561,-0.0559,-0.0558,-0.0536,-0.0532,-0.0578,-0.0579,-0.0579,-0.0579,0,-0.0261,-0.0268,-0.0269,-0.0292,-0.0301,-0.0298,-0.0333,-0.0336,-0.0357,-0.0376,-0.0387,-0.0439,-0.0461,-0.0479,-0.0513,-0.0515,-0.0514,-0.0555,-0.0577,-0.055,-0.0529,-0.0526,-0.0574,-0.0575,-0.0576,-0.0577,0,0,-0.0174,-0.0234,-0.0228,-0.0227,-0.0268,-0.0262,-0.0269,-0.0274,-0.0257,-0.0301,-0.0278,-0.0344,-0.0371,-0.0392,-0.0436,-0.046,-0.0453,-0.0498,-0.05,-0.0473,-0.0466,-0.0427,-0.042,-0.0498,-0.0498,-0.0498,-0.0445,0,-0.0124,-0.012,-0.0164,-0.0138,-0.0135,-0.0178,-0.0171,-0.0184,-0.0201,-0.019,-0.0252,-0.0249,-0.0339,-0.0335,-0.0383,-0.0428,-0.0447,-0.0461,-0.0497,-0.0497,-0.0466,-0.0417,-0.0428,-0.038,-0.0443,-0.0442,-0.0442,0,-0.0066,-0.0076,-0.005,-0.006,-0.0058,-0.0043,-0.0025,-0.0024,-0.0042,-0.0054,-0.0087,-0.0129,-0.0165,-0.0244,-0.0324,-0.0328,-0.0392,-0.0437,-0.0437,-0.0417,-0.0453,-0.0423,-0.0373,-0.0598,-0.0438,-0.0438,-0.0438,0,0.003,0.0017,0.0045,0.0039,0.0016,0.0038,0.0041,0.003,0.006,0.0048,0.0085,-0.0003,0.0011,-0.0115,-0.0217,-0.027,-0.0284,-0.0372,-0.0393,-0.0389,-0.0413,-0.0412,-0.0586,-0.043,-0.043,-0.043,-0.043,0,0.0104,0.0129,0.0097,0.0113,0.0172,0.0129,0.0203,0.0187,0.0207,0.0285,0.0173,0.0237,0.0043,0.0006,-0.0147,-0.0227,-0.0232,-0.036,-0.0374,-0.039,-0.0388,-0.0597,-0.0714,-0.0428,-0.0428,-0.0429,-0.0429,0,0.0205,0.0175,0.021,0.0204,0.0215,0.0266,0.0313,0.0367,0.0371,0.0475,0.049,0.0447,0.0412,0.0234,0.0089,-0.0079,-0.0303,-0.0229,-0.0205,-0.0218,-0.0482,-0.0592,-0.0712,-0.0808,-0.0258,-0.0257,-0.0256,0,0.0247,0.0275,0.0298,0.0337,0.0341,0.0403,0.0453,0.0453,0.0527,0.0629,0.0706,0.071,0.0747,0.0554,0.0263,0.0036,-0.0197,-0.0143,-0.0271,-0.0472,-0.0608,-0.0691,-0.0772,-0.0271,-0.027,-0.0269,-0.0269,0,0.0334,0.035,0.0383,0.0465,0.0523,0.0596,0.0676,0.0759,0.0808,0.0919,0.1083,0.113,0.0957,0.0747,0.042,0.0209,-0.0304,-0.0133,-0.0374,-0.0643,-0.0715,-0.082,-0.0303,-0.0262,-0.0263,-0.0264,-0.0264,-0.0264,0.0408,0.0464,0.0519,0.0605,0.0679,0.0798,0.0891,0.1004,0.1166,0.1359,0.1377,0.15,0.1137,0.0698,0.0386,-0.0221,-0.0227,-0.0446,-0.0559,-0.0621,-0.074,-0.0171,-0.0133,-0.0133,-0.0133,-0.0133,-0.0133,0,0.0491,0.0558,0.0652,0.0758,0.0871,0.0882,0.1047,0.1164,0.1391,0.1578,0.1731,0.1649,0.1175,0.0646,-0.0131,-0.0579,-0.0794,-0.0843,-0.1027,-0.1088,-0.0615,-0.0648,-0.0681,-0.0681,-0.0681,-0.0681,-0.0681,-0.068,0.0538,0.0648,0.0703,0.0903,0.0992,0.1151,0.1257,0.1443,0.1605,0.1864,0.1969,0.2009,0.1629,0.0209,-0.0817,-0.1079,-0.1408,-0.145,-0.1606,-0.1368,-0.1343,-0.1319,-0.1382,-0.1569,-0.157,-0.2062,-0.2067,-0.2071]}],[{"header":{"parameterUnit":"m.s-1","parameterCategory":2,"la1":30.2991,"la2":30.254,"lo1":-89.0895,"lo2":-89.0444,"dy":0.0017,"dx":0.0017,"nx":28,"ny":28,"refTime":"2023-10-28T09:00:00:Z","depth":"2","parameterNumber":2,"parameterNumberName":"U-component_of_CURRENTS"},"data":[0,0,0,0,0,0,0,0,0,0,0,0,0,0,0,0,0,0,0,0,0,0,0,0,0,0,0,0,0,0,0,0,0,0,0,0,0,0,0,0,0,0,0,0,0,0,0,0,0,0,0,0,0,0,0,0,0,0,0.2369,0.237,0,0.2423,0.2424,0.2424,0.2427,0.2426,0.2426,0.2426,0.2385,0.2384,0.2383,0,0,0,0,0,0,0,0,0,0,0,0,0,0.2253,0.2255,0.2369,0.237,0.2371,0.2423,0.2424,0.2424,0.2427,0.2426,0.2426,0.2425,0.2385,0.2384,0.2383,0,0,0,0,0,0,0,0,0,0,0,0,0,0.2303,0.2256,0.2369,0.238,0.2382,0.2423,0.2424,0.2424,0.2427,0.2426,0.2426,0.2425,0.2385,0.2384,0.2383,0.239,0,0,0.238,0.238,0,0,0,0,0,0,0,0,0.23,0.2307,0.2378,0.238,0.2381,0.2419,0.2368,0.2409,0.2427,0.2408,0.2425,0.2425,0.2389,0.2388,0.2398,0.2388,0.2387,0.238,0.2379,0.2379,0.2379,0,0,0,0,0,0,0,0.2297,0.2305,0.2389,0.2379,0.2381,0.2377,0.2383,0.2376,0.2398,0.2409,0.241,0.242,0.2389,0.2399,0.2397,0.2386,0.238,0.2379,0.2379,0.2378,0.2414,0.2415,0,0,0,0,0,0,0.2296,0.2302,0.2387,0.239,0.2341,0.238,0.2387,0.2406,0.24,0.24,0.242,0.242,0.2401,0.2398,0.2395,0.2432,0.2379,0.2378,0.2377,0.2412,0.2414,0.2416,0,0,0,0,0,0,0.2294,0.2304,0.2385,0.2348,0.2358,0.2383,0.2404,0.2408,0.242,0.241,0.2407,0.2429,0.2401,0.2397,0.2393,0.2429,0.2378,0.2377,0.241,0.2413,0.2415,0.2487,0,0,0,0,0,0,0.229,0.2303,0.2324,0.2349,0.236,0.2415,0.2405,0.2409,0.2428,0.2427,0.2417,0.2413,0.24,0.2395,0.2392,0.2427,0.2376,0.2408,0.2411,0.2414,0.2482,0.2491,0.2499,0,0,0,0,0,0.2286,0.2303,0.2325,0.2336,0.2387,0.2416,0.2422,0.2434,0.2429,0.2441,0.2431,0.2413,0.2412,0.2394,0.2391,0.2427,0.2407,0.241,0.2414,0.2479,0.2489,0.2498,0,0,0,0,0,0,0.2257,0.2306,0.233,0.2362,0.2395,0.2417,0.2425,0.2439,0.2444,0.244,0.2422,0.2417,0.2436,0.2417,0.2399,0.2447,0.2411,0.2414,0.2462,0.2472,0.248,0.2485,0.2375,0,0,0,0,0,0.2266,0.2303,0.234,0.2373,0.238,0.2407,0.2422,0.2439,0.2445,0.2447,0.244,0.2437,0.245,0.2446,0.245,0.2463,0.2469,0.2488,0.2496,0.2503,0.2506,0.2557,0.257,0.2427,0.2427,0.2427,0,0,0.226,0.2301,0.2317,0.2372,0.239,0.2412,0.2413,0.2439,0.2465,0.244,0.2456,0.2463,0.246,0.2486,0.2493,0.2472,0.2548,0.2507,0.2513,0.2512,0.2562,0.2576,0.2589,0.2429,0.2429,0.2429,0,0,0.2264,0.2303,0.2326,0.2354,0.24,0.2422,0.243,0.2458,0.2472,0.25,0.2497,0.2522,0.2523,0.2541,0.2548,0.26,0.2594,0.2605,0.2645,0.2695,0.2708,0.2718,0.275,0.2763,0.2605,0.2605,0.2605,0,0.2254,0.2305,0.2335,0.2363,0.2391,0.2423,0.2448,0.247,0.25,0.2522,0.251,0.2563,0.2556,0.2607,0.2628,0.262,0.2639,0.2607,0.2707,0.2718,0.2728,0.2757,0.2771,0.2609,0.2609,0.2608,0.2608,0,0.2267,0.2316,0.2324,0.2382,0.2413,0.2442,0.2478,0.2509,0.2534,0.2566,0.2624,0.2632,0.2668,0.2679,0.2666,0.2742,0.273,0.2716,0.2682,0.2747,0.2773,0.2786,0.2615,0.2613,0.2612,0.2611,0,0,0.2236,0.2317,0.2325,0.2365,0.243,0.2456,0.2502,0.2563,0.2605,0.2643,0.2705,0.2739,0.276,0.277,0.2774,0.2811,0.2897,0.2794,0.2795,0.2825,0.3005,0.3001,0.3014,0.2905,0.2908,0.291,0.2997,0,0.2243,0.2299,0.2344,0.2407,0.2438,0.2492,0.2539,0.2602,0.2652,0.2715,0.2757,0.2816,0.279,0.2828,0.2862,0.29,0.2934,0.2874,0.2937,0.2938,0.2928,0.303,0.2802,0.2862,0.3009,0.3011,0.3013,0,0.2245,0.2298,0.2347,0.2448,0.2462,0.2509,0.2605,0.265,0.2744,0.2789,0.2859,0.2893,0.2972,0.2935,0.3028,0.2996,0.3004,0.3017,0.302,0.2999,0.2959,0.2821,0.2879,0.3034,0.3032,0.3031,0.3029,0,0.2214,0.2304,0.2351,0.2379,0.248,0.2528,0.2588,0.2681,0.2737,0.2849,0.2918,0.2996,0.3065,0.3096,0.3142,0.3093,0.3241,0.3173,0.317,0.3169,0.2978,0.2956,0.3228,0.3228,0.3228,0.3228,0.3227,0,0.2205,0.2247,0.2348,0.2371,0.2446,0.2526,0.2604,0.2678,0.2799,0.2874,0.2958,0.3045,0.3112,0.3202,0.3198,0.3257,0.3295,0.3204,0.3207,0.2998,0.2978,0.3118,0.3104,0.3231,0.323,0.3229,0.3229,0,0.215,0.221,0.2275,0.2391,0.2429,0.2482,0.2611,0.2673,0.28,0.291,0.2961,0.312,0.3235,0.33,0.3378,0.3347,0.3388,0.3387,0.3139,0.3112,0.3251,0.324,0.3372,0.3373,0.3374,0.3375,0.3375,0,0.2125,0.2149,0.2262,0.2311,0.2367,0.2455,0.2518,0.2652,0.2729,0.2943,0.3004,0.3178,0.3257,0.3408,0.3414,0.3442,0.3449,0.3232,0.3089,0.3285,0.3274,0.3262,0.325,0.2854,0.285,0.2847,0.2845,0,0.2079,0.2114,0.2158,0.2252,0.233,0.2395,0.2508,0.2573,0.2732,0.2834,0.2989,0.3079,0.3255,0.3211,0.3301,0.3268,0.3211,0.317,0.3467,0.2868,0.2808,0.2794,0.2796,0.2817,0.282,0.2822,0.2824,0.2825,0.2036,0.2049,0.2108,0.2188,0.2268,0.2335,0.2349,0.2471,0.2555,0.2684,0.285,0.2908,0.3,0.3016,0.2963,0.2938,0.312,0.2958,0.2962,0.297,0.291,0.2857,0.2863,0.2866,0.2868,0.287,0.2872,0,0.1971,0.1991,0.2057,0.212,0.215,0.2238,0.2331,0.2312,0.2351,0.2522,0.2603,0.247,0.25,0.259,0.2526,0.2554,0.2461,0.2437,0.2283,0.2317,0.2346,0.2245,0.2026,0.2022,0.2019,0.2016,0,0,0.1947,0.1939,0.1963,0.1978,0.2033,0.202,0.2047,0.2048,0.2131,0.2141,0.2183,0.239,0.2546,0.2239,0.2233,0.2121,0.2183,0.2042,0.2739,0.2596,0.2618,0.2689,0.2581,0,0,0,0,0]},{"header":{"parameterUnit":"m.s-1","parameterCategory":2,"la1":30.2991,"la2":30.254,"lo1":-89.0895,"lo2":-89.0444,"dy":0.0017,"dx":0.0017,"nx":28,"ny":28,"refTime":"2023-10-28T09:00:00:Z","depth":"2","parameterNumber":3,"parameterNumberName":"V-component_of_CURRENTS"},"data":[0,0,0,0,0,0,0,0,0,0,0,0,0,0,0,0,0,0,0,0,0,0,0,0,0,0,0,0,0,0,0,0,0,0,0,0,0,0,0,0,0,0,0,0,0,0,0,0,0,0,0,0,0,0,0,0,0,0,-0.0391,-0.0393,0,-0.0515,-0.0516,-0.0517,-0.0588,-0.0588,-0.0589,-0.059,-0.0551,-0.055,-0.0548,0,0,0,0,0,0,0,0,0,0,0,0,0,-0.0173,-0.0176,-0.0391,-0.0393,-0.0395,-0.0515,-0.0516,-0.0518,-0.0588,-0.0588,-0.0589,-0.059,-0.0552,-0.055,-0.0548,0,0,0,0,0,0,0,0,0,0,0,0,0,-0.0275,-0.0177,-0.039,-0.0448,-0.0454,-0.0515,-0.0517,-0.0518,-0.0587,-0.0588,-0.0589,-0.059,-0.0552,-0.055,-0.0548,-0.0512,0,0,-0.054,-0.0539,0,0,0,0,0,0,0,0,-0.0269,-0.0282,-0.0437,-0.0444,-0.0452,-0.0541,-0.0426,-0.051,-0.0587,-0.0532,-0.059,-0.0591,-0.0535,-0.0534,-0.0551,-0.051,-0.0508,-0.054,-0.0538,-0.0537,-0.0537,0,0,0,0,0,0,0,-0.0262,-0.0277,-0.0435,-0.0439,-0.0448,-0.0454,-0.0469,-0.0442,-0.0519,-0.0537,-0.0543,-0.0565,-0.0537,-0.0553,-0.055,-0.0508,-0.054,-0.0538,-0.0536,-0.0535,-0.049,-0.049,0,0,0,0,0,0,-0.0258,-0.0271,-0.0431,-0.0439,-0.0366,-0.0457,-0.0474,-0.0507,-0.0523,-0.053,-0.0564,-0.0568,-0.0557,-0.0553,-0.0549,-0.0533,-0.0537,-0.0535,-0.0533,-0.049,-0.049,-0.049,0,0,0,0,0,0,-0.0253,-0.0272,-0.0426,-0.0361,-0.0381,-0.0461,-0.0497,-0.051,-0.053,-0.0547,-0.0549,-0.0572,-0.0558,-0.0552,-0.0525,-0.0531,-0.0534,-0.0532,-0.0489,-0.049,-0.049,-0.0484,0,0,0,0,0,0,-0.0246,-0.0269,-0.0292,-0.0361,-0.0385,-0.0454,-0.0497,-0.0511,-0.0544,-0.055,-0.0554,-0.0552,-0.0558,-0.0529,-0.0523,-0.0527,-0.053,-0.0489,-0.049,-0.049,-0.0484,-0.0484,-0.0484,0,0,0,0,0,-0.0238,-0.0247,-0.0293,-0.0313,-0.0415,-0.0454,-0.0465,-0.0521,-0.0543,-0.0543,-0.055,-0.0552,-0.053,-0.0526,-0.0519,-0.0523,-0.0489,-0.0489,-0.049,-0.0483,-0.0484,-0.0484,0,0,0,0,0,0,-0.0164,-0.0259,-0.0309,-0.035,-0.0402,-0.0467,-0.0473,-0.0514,-0.0524,-0.0527,-0.0537,-0.0534,-0.0526,-0.0516,-0.0513,-0.0516,-0.0516,-0.0516,-0.0514,-0.0514,-0.0514,-0.0483,-0.0528,0,0,0,0,0,-0.0163,-0.0203,-0.0284,-0.0322,-0.0336,-0.0405,-0.043,-0.0473,-0.0496,-0.0505,-0.051,-0.0516,-0.0523,-0.051,-0.0513,-0.0486,-0.048,-0.0492,-0.0492,-0.0492,-0.0464,-0.0472,-0.0469,-0.0493,-0.0493,-0.0493,0,0,-0.0143,-0.0208,-0.0229,-0.0311,-0.0349,-0.0357,-0.0419,-0.0451,-0.0458,-0.0491,-0.0478,-0.0512,-0.0519,-0.0515,-0.051,-0.0503,-0.0486,-0.0493,-0.0493,-0.0464,-0.0472,-0.0469,-0.0467,-0.0493,-0.0493,-0.0493,0,0,-0.0109,-0.0177,-0.0187,-0.0219,-0.0289,-0.0326,-0.0331,-0.0392,-0.0412,-0.042,-0.0458,-0.0488,-0.0478,-0.0499,-0.0505,-0.0498,-0.0496,-0.0509,-0.0468,-0.0477,-0.0475,-0.0472,-0.0473,-0.0471,-0.0498,-0.0498,-0.0498,0,-0.0084,-0.0124,-0.0191,-0.0199,-0.0219,-0.0301,-0.0294,-0.0318,-0.0368,-0.0371,-0.0408,-0.0448,-0.0472,-0.0468,-0.0489,-0.0498,-0.0494,-0.0467,-0.0476,-0.0473,-0.0471,-0.0473,-0.047,-0.0498,-0.0498,-0.0498,-0.0498,0,-0.0045,-0.0081,-0.0076,-0.0123,-0.0143,-0.0154,-0.0199,-0.0212,-0.0259,-0.0299,-0.0323,-0.0379,-0.0399,-0.0437,-0.0462,-0.0464,-0.0465,-0.0485,-0.0471,-0.0468,-0.0471,-0.0468,-0.0498,-0.0498,-0.0498,-0.0498,0,0,0.0011,-0.004,-0.0041,-0.005,-0.0108,-0.0114,-0.0109,-0.0132,-0.012,-0.0194,-0.0183,-0.0263,-0.0316,-0.0326,-0.038,-0.0403,-0.0421,-0.0433,-0.0433,-0.0426,-0.0425,-0.0461,-0.0462,-0.044,-0.0439,-0.0439,-0.0437,0,0.0054,0.0061,0.0021,0.0038,0.0042,-0.0012,0.0003,-0.0028,-0.0067,-0.0068,-0.0151,-0.0167,-0.0261,-0.0285,-0.0325,-0.0392,-0.0411,-0.0418,-0.0434,-0.0434,-0.0461,-0.0459,-0.0426,-0.0424,-0.0435,-0.0434,-0.0434,0,0.0104,0.009,0.012,0.0104,0.0109,0.0116,0.012,0.0122,0.0097,0.0067,0.0024,-0.0035,-0.0086,-0.0171,-0.0261,-0.0257,-0.0331,-0.0393,-0.0395,-0.0419,-0.0465,-0.0427,-0.0419,-0.043,-0.043,-0.0431,-0.0431,0,0.0171,0.0163,0.0189,0.0185,0.0165,0.0181,0.0178,0.016,0.0183,0.0163,0.0171,0.0092,0.0066,-0.0037,-0.019,-0.0214,-0.0284,-0.033,-0.0425,-0.0428,-0.0395,-0.0397,-0.0378,-0.0378,-0.0378,-0.0378,-0.0378,0,0.0225,0.0242,0.0226,0.024,0.0283,0.0249,0.0303,0.0288,0.0295,0.0347,0.0252,0.0274,0.0098,0.0025,-0.0123,-0.0263,-0.023,-0.0403,-0.0427,-0.0396,-0.0397,-0.0397,-0.04,-0.0378,-0.0378,-0.0378,-0.0378,0,0.029,0.0276,0.0305,0.0305,0.0312,0.0348,0.0384,0.0426,0.0421,0.0491,0.0495,0.0425,0.0326,0.0145,-0.0019,-0.0163,-0.0305,-0.0362,-0.0316,-0.0336,-0.0456,-0.0458,-0.0451,-0.0452,-0.0453,-0.0454,-0.0454,0,0.032,0.0341,0.0368,0.0398,0.04,0.0447,0.0483,0.0485,0.0541,0.0591,0.0639,0.0567,0.0525,0.0263,-0.0005,-0.0245,-0.029,-0.0369,-0.0425,-0.0437,-0.0461,-0.0462,-0.0463,-0.0379,-0.0379,-0.0379,-0.0379,0,0.0374,0.0391,0.0422,0.0482,0.0526,0.059,0.0647,0.0709,0.0746,0.0801,0.0864,0.0837,0.059,0.0339,-0.0008,-0.017,-0.0336,-0.0379,-0.0378,-0.0379,-0.0374,-0.0397,-0.0399,-0.0379,-0.0379,-0.0379,-0.0379,-0.0379,0.042,0.0462,0.051,0.0574,0.0634,0.0727,0.0794,0.087,0.0967,0.1053,0.1027,0.1,0.0711,0.0268,-0.0033,-0.0341,-0.034,-0.0441,-0.0439,-0.0437,-0.0443,-0.0441,-0.0459,-0.0459,-0.046,-0.046,-0.046,0,0.0471,0.0523,0.0594,0.0672,0.0757,0.0776,0.0901,0.097,0.1093,0.1164,0.1196,0.0964,0.0668,0.0343,-0.0123,-0.0413,-0.0426,-0.0485,-0.0441,-0.0439,-0.0437,-0.0442,-0.0458,-0.0459,-0.046,-0.0461,0,0,0.0498,0.0579,0.0621,0.076,0.0828,0.0944,0.1023,0.112,0.1196,0.1259,0.1257,0.118,0.0787,0.0457,0.0063,-0.0201,-0.0249,-0.0242,-0.0212,-0.0112,-0.0107,-0.038,-0.0381,0,0,0,0,0]}],[{"header":{"parameterUnit":"m.s-1","parameterCategory":2,"la1":30.2991,"la2":30.254,"lo1":-89.0895,"lo2":-89.0444,"dy":0.0017,"dx":0.0017,"nx":28,"ny":28,"refTime":"2023-10-28T09:00:00:Z","depth":"4","parameterNumber":2,"parameterNumberName":"U-component_of_CURRENTS"},"data":[0,0,0,0,0,0,0,0,0,0,0,0,0,0,0,0,0,0,0,0,0,0,0,0,0,0,0,0,0,0,0,0,0,0,0,0,0,0,0,0,0,0,0,0,0,0,0,0,0,0,0,0,0,0,0,0,0,0,0.1109,0.1109,0,0.1155,0.1156,0.1157,0.1212,0.1212,0.1212,0.1212,0.1361,0.1364,0.1368,0,0,0,0,0,0,0,0,0,0,0,0,0,0.1111,0.1111,0.1109,0.1109,0.1109,0.1154,0.1156,0.1157,0.1212,0.1212,0.1212,0.1212,0.1359,0.1364,0.1369,0,0,0,0,0,0,0,0,0,0,0,0,0,0.1136,0.1111,0.1109,0.1136,0.1138,0.1154,0.1156,0.1158,0.1212,0.1212,0.1212,0.1212,0.1358,0.1363,0.1369,0.14,0,0,0.1387,0.1389,0,0,0,0,0,0,0,0,0.1134,0.1137,0.1132,0.1134,0.1137,0.1171,0.121,0.1241,0.1212,0.1192,0.1212,0.1212,0.1302,0.1312,0.1329,0.1407,0.1413,0.1387,0.1391,0.1393,0.1395,0,0,0,0,0,0,0,0.1133,0.1135,0.1135,0.1132,0.1135,0.1159,0.1164,0.1217,0.1253,0.1194,0.1196,0.1189,0.1305,0.1324,0.1333,0.1415,0.1387,0.1392,0.1396,0.1398,0.1585,0.1587,0,0,0,0,0,0,0.1109,0.1133,0.1133,0.1136,0.1128,0.1158,0.1164,0.1166,0.125,0.126,0.1188,0.1191,0.1314,0.1327,0.1339,0.1448,0.1393,0.1398,0.1402,0.1584,0.1585,0.1587,0,0,0,0,0,0,0.1109,0.1109,0.1131,0.1129,0.1133,0.1157,0.116,0.1167,0.1217,0.1243,0.1257,0.1234,0.1315,0.1331,0.1418,0.1452,0.1401,0.1406,0.1582,0.1584,0.1586,0.1623,0,0,0,0,0,0,0.1109,0.1109,0.112,0.1128,0.1131,0.1156,0.1159,0.1167,0.1206,0.1211,0.1287,0.1298,0.1316,0.1409,0.1424,0.1459,0.1411,0.158,0.1583,0.1586,0.162,0.1627,0.1632,0,0,0,0,0,0.111,0.1114,0.1121,0.1121,0.114,0.1156,0.1163,0.1185,0.1208,0.1234,0.1292,0.1298,0.1437,0.1416,0.1432,0.147,0.1578,0.1582,0.1585,0.1617,0.1625,0.1632,0,0,0,0,0,0,0.1122,0.112,0.1127,0.1132,0.115,0.1163,0.1194,0.1207,0.1273,0.1296,0.1331,0.1347,0.1425,0.1449,0.1425,0.153,0.1504,0.1511,0.1523,0.1531,0.1537,0.1531,0.1415,0,0,0,0,0,0.1126,0.1131,0.1136,0.1144,0.1165,0.1191,0.1208,0.122,0.1263,0.1294,0.1341,0.1397,0.1447,0.1492,0.1529,0.1608,0.1627,0.1638,0.1644,0.1649,0.1655,0.1715,0.1727,0.1598,0.1598,0.1598,0,0,0.1135,0.1129,0.1137,0.1147,0.1178,0.121,0.1207,0.1242,0.1276,0.1302,0.139,0.142,0.1469,0.1539,0.1577,0.1573,0.1696,0.1653,0.1657,0.1661,0.172,0.1733,0.1744,0.1601,0.16,0.16,0,0,0.1146,0.1161,0.1177,0.1198,0.1226,0.1241,0.1258,0.1295,0.1331,0.1404,0.1422,0.1477,0.157,0.1597,0.1627,0.1695,0.1715,0.1711,0.1758,0.1816,0.1827,0.1837,0.1877,0.189,0.1728,0.1728,0.1728,0,0.116,0.1174,0.1186,0.1212,0.1234,0.1262,0.1297,0.1338,0.1392,0.1432,0.1441,0.1561,0.1593,0.1674,0.1692,0.1709,0.1744,0.1726,0.1824,0.1834,0.1843,0.1882,0.1896,0.173,0.173,0.173,0.173,0,0.1187,0.121,0.1233,0.1273,0.1297,0.1335,0.1375,0.1422,0.147,0.1504,0.1595,0.1637,0.1711,0.1721,0.1736,0.1818,0.1821,0.1812,0.1803,0.1859,0.1896,0.191,0.1733,0.1733,0.1732,0.1731,0,0,0.1186,0.1241,0.1251,0.1278,0.1334,0.1352,0.1425,0.1489,0.1551,0.1611,0.1689,0.1759,0.1787,0.182,0.1837,0.1883,0.1971,0.1888,0.189,0.1923,0.2106,0.1992,0.1996,0.1992,0.1995,0.1997,0.2105,0,0.1213,0.1257,0.1281,0.134,0.1374,0.1423,0.1488,0.1547,0.1613,0.1697,0.1751,0.1836,0.1828,0.1873,0.192,0.1959,0.2011,0.1943,0.2051,0.2053,0.1942,0.2009,0.2005,0.2115,0.2118,0.212,0.2122,0,0.1228,0.1252,0.1308,0.1371,0.1398,0.1445,0.1542,0.1609,0.1726,0.1778,0.1865,0.1915,0.2005,0.198,0.2096,0.2062,0.2095,0.2111,0.2115,0.2005,0.1965,0.2049,0.2147,0.2145,0.2144,0.2142,0.214,0,0.1195,0.1266,0.1307,0.1333,0.1417,0.1467,0.1536,0.1644,0.171,0.1847,0.1909,0.2014,0.2088,0.2146,0.2201,0.217,0.2309,0.2269,0.2194,0.2186,0.2239,0.2227,0.235,0.235,0.235,0.2349,0.2349,0,0.1189,0.1229,0.1304,0.133,0.1397,0.1471,0.1574,0.1649,0.1771,0.1859,0.1968,0.2037,0.2139,0.2228,0.2249,0.2274,0.2365,0.2214,0.2213,0.2251,0.224,0.2248,0.2235,0.2353,0.2352,0.2352,0.2351,0,0.1148,0.1203,0.1253,0.1348,0.1381,0.1442,0.1579,0.1651,0.1783,0.1896,0.1947,0.2092,0.2212,0.2291,0.2391,0.2334,0.2363,0.2349,0.2401,0.2399,0.2185,0.2172,0.2264,0.2261,0.2259,0.2257,0.2255,0,0.1131,0.1152,0.1245,0.1278,0.1332,0.1432,0.1501,0.1638,0.1714,0.1911,0.1956,0.2121,0.2207,0.2263,0.2345,0.2392,0.2362,0.2357,0.2243,0.2189,0.218,0.2172,0.2163,0.2251,0.225,0.2249,0.2249,0,0.1099,0.1144,0.1181,0.1239,0.131,0.1375,0.149,0.1519,0.1694,0.1824,0.1926,0.1995,0.2127,0.2197,0.2264,0.2282,0.2342,0.2329,0.2332,0.2225,0.2174,0.2165,0.216,0.224,0.2241,0.2242,0.2243,0,0.1077,0.1092,0.1143,0.1187,0.1262,0.1294,0.1361,0.1458,0.1542,0.1754,0.1788,0.1965,0.2109,0.2144,0.2202,0.2221,0.2172,0.2081,0.2096,0.2107,0.2004,0.1913,0.1912,0,0,0,0,0,0.1044,0.1052,0.1086,0.1123,0.119,0.1235,0.1342,0.1415,0.1576,0.1608,0.1689,0.1805,0.1899,0.199,0.1979,0.2123,0.2171,0.2099,0.207,0.2191,0.2201,0.2094,0,0,0,0,0,0,0.1022,0.1058,0.1057,0.1058,0.1074,0.114,0.12,0.1302,0.1334,0.1503,0.1572,0.1706,0.1831,0.19,0.1951,0.1977,0.1923,0.2211,0.2206,0.2185,0.2195,0.2203,0.2096,0,0,0,0,0]},{"header":{"parameterUnit":"m.s-1","parameterCategory":2,"la1":30.2991,"la2":30.254,"lo1":-89.0895,"lo2":-89.0444,"dy":0.0017,"dx":0.0017,"nx":28,"ny":28,"refTime":"2023-10-28T09:00:00:Z","depth":"4","parameterNumber":3,"parameterNumberName":"V-component_of_CURRENTS"},"data":[0,0,0,0,0,0,0,0,0,0,0,0,0,0,0,0,0,0,0,0,0,0,0,0,0,0,0,0,0,0,0,0,0,0,0,0,0,0,0,0,0,0,0,0,0,0,0,0,0,0,0,0,0,0,0,0,0,0,0.0257,0.0257,0,0.024,0.0239,0.0239,0.023,0.023,0.023,0.023,0.0126,0.0123,0.012,0,0,0,0,0,0,0,0,0,0,0,0,0,0.0267,0.0267,0.0257,0.0257,0.0257,0.024,0.0239,0.0239,0.023,0.023,0.023,0.023,0.0127,0.0123,0.012,0,0,0,0,0,0,0,0,0,0,0,0,0,0.0256,0.0267,0.0257,0.0251,0.0251,0.024,0.0239,0.0239,0.023,0.023,0.023,0.023,0.0128,0.0123,0.0119,0.0089,0,0,0.0106,0.0104,0,0,0,0,0,0,0,0,0.0257,0.0256,0.0252,0.0252,0.0251,0.0238,0.0205,0.0185,0.023,0.0236,0.023,0.023,0.0156,0.0149,0.0145,0.0084,0.008,0.0106,0.0103,0.0101,0.01,0,0,0,0,0,0,0,0.0258,0.0256,0.0249,0.0252,0.0252,0.0245,0.0243,0.0201,0.0193,0.0236,0.0235,0.0236,0.0155,0.0149,0.0142,0.0078,0.0106,0.0102,0.0099,0.0097,0.0009,0.0009,0,0,0,0,0,0,0.0264,0.0257,0.0249,0.0248,0.0256,0.0244,0.0243,0.0241,0.0195,0.0189,0.0235,0.0235,0.0156,0.0147,0.0138,0.012,0.0101,0.0097,0.0095,0.0009,0.0009,0.0009,0,0,0,0,0,0,0.0264,0.0263,0.025,0.0254,0.0252,0.0244,0.0242,0.0241,0.024,0.0196,0.0188,0.0238,0.0156,0.0144,0.0102,0.0115,0.0095,0.0091,0.0008,0.0009,0.0009,0.007,0,0,0,0,0,0,0.0264,0.0263,0.0268,0.0254,0.0252,0.025,0.0242,0.024,0.0241,0.024,0.0195,0.0186,0.0155,0.0108,0.0097,0.0109,0.0088,0.0008,0.0009,0.0009,0.0067,0.0072,0.0076,0,0,0,0,0,0.0264,0.0272,0.0268,0.0268,0.0257,0.025,0.0248,0.0242,0.0241,0.0242,0.0208,0.0187,0.0104,0.0104,0.0091,0.0102,0.0008,0.0008,0.0009,0.0065,0.0071,0.0076,0,0,0,0,0,0,0.0276,0.0271,0.0267,0.0272,0.0264,0.0249,0.0252,0.0246,0.0223,0.022,0.0178,0.0166,0.0138,0.0107,0.0108,0.0079,0.0057,0.0055,0.0105,0.011,0.0114,0.0122,0.0084,0,0,0,0,0,0.0281,0.0291,0.0276,0.0283,0.0277,0.0265,0.0263,0.0258,0.0235,0.0227,0.0191,0.0156,0.013,0.0109,0.0076,0.0049,0.0008,0.0051,0.0055,0.0059,0.0058,0.0004,0.0004,0.0011,0.0011,0.0011,0,0,0.0285,0.0289,0.0291,0.0287,0.0279,0.0277,0.0264,0.0263,0.0263,0.0215,0.0195,0.0165,0.0126,0.0103,0.0089,0.0078,0.0036,0.006,0.0064,0.006,0.0005,0.0004,0.0003,0.0011,0.0011,0.0011,0,0,0.03,0.0301,0.0308,0.0304,0.0299,0.0293,0.0295,0.0275,0.0268,0.0242,0.0218,0.0195,0.014,0.0124,0.0108,0.0113,0.0062,0.0106,0.0131,0.008,0.0079,0.0078,0.0028,0.0021,0.0108,0.0108,0.0108,0,0.0303,0.0311,0.0309,0.0312,0.0314,0.0302,0.0304,0.0296,0.0266,0.0255,0.0241,0.0181,0.0154,0.0137,0.0146,0.0125,0.008,0.0117,0.0086,0.0084,0.0081,0.003,0.0022,0.0111,0.011,0.011,0.011,0,0.0314,0.0322,0.0326,0.033,0.0334,0.0334,0.0323,0.0317,0.0305,0.0289,0.0262,0.0222,0.0187,0.0186,0.0166,0.0146,0.0115,0.0099,0.0074,0.0084,0.003,0.002,0.0115,0.0114,0.0113,0.0112,0,0,0.0311,0.0329,0.033,0.0339,0.0343,0.0346,0.035,0.0343,0.0342,0.0309,0.0297,0.0267,0.0243,0.0224,0.0202,0.0167,0.0121,0.0128,0.0124,0.0082,-0.0002,-0.0009,-0.002,0.0091,0.009,0.0089,-0.0032,0,0.0315,0.0335,0.0343,0.0361,0.0367,0.0367,0.0374,0.037,0.0354,0.0335,0.0303,0.028,0.0259,0.0247,0.0209,0.0144,0.0098,0.0155,-0.0009,-0.0013,-0.0017,-0.003,0.0085,-0.0039,-0.0041,-0.0043,-0.0044,0,0.0315,0.0334,0.0354,0.0382,0.0383,0.0396,0.0409,0.0412,0.039,0.0375,0.0345,0.031,0.027,0.0247,0.0129,0.0161,0.0082,0.0028,0.0022,-0.0013,-0.0037,-0.0053,-0.0062,-0.006,-0.0059,-0.0058,-0.0057,0,0.0319,0.0341,0.0365,0.0371,0.0396,0.0408,0.0424,0.0421,0.043,0.04,0.0394,0.0327,0.0298,0.0195,0.009,0.0098,-0.0053,-0.006,-0.0143,-0.0145,-0.013,-0.0127,-0.016,-0.016,-0.0159,-0.0159,-0.0159,0,0.032,0.0337,0.037,0.038,0.0413,0.0425,0.045,0.0454,0.0457,0.047,0.0416,0.0402,0.028,0.0186,0.0082,-0.0059,-0.0069,-0.0147,-0.0179,-0.0101,-0.0093,-0.0137,-0.0132,-0.0163,-0.0162,-0.0162,-0.0161,0,0.0321,0.0337,0.0366,0.04,0.0416,0.0442,0.0488,0.0504,0.0502,0.0516,0.0511,0.0444,0.0321,0.0188,0.0017,-0.0064,-0.0199,-0.0251,-0.0161,-0.0184,-0.0257,-0.0248,-0.0358,-0.0359,-0.036,-0.0361,-0.0362,0,0.0322,0.0337,0.0388,0.0412,0.043,0.047,0.0503,0.0527,0.0552,0.0544,0.0555,0.0448,0.0384,0.0144,-0.0005,-0.0224,-0.0248,-0.0323,-0.0284,-0.0258,-0.0278,-0.0268,-0.0258,-0.0364,-0.0364,-0.0364,-0.0365,0,0.0327,0.0347,0.0377,0.0431,0.0472,0.0519,0.057,0.0591,0.0617,0.0616,0.059,0.0473,0.0328,0.0148,-0.0029,-0.0179,-0.0272,-0.0334,-0.0333,-0.0297,-0.0266,-0.0283,-0.0272,-0.0368,-0.0368,-0.0367,-0.0367,0,0.0336,0.0359,0.0403,0.0451,0.0505,0.0558,0.0578,0.0613,0.0639,0.0641,0.0625,0.0482,0.0401,0.0169,0.001,-0.0145,-0.0178,-0.0214,-0.0219,-0.0217,-0.0135,-0.0072,-0.0149,0,0,0,0,0,0.0345,0.0375,0.042,0.0472,0.0527,0.0566,0.0624,0.0641,0.0664,0.0659,0.065,0.0523,0.0295,0.0194,0.0038,-0.003,-0.0223,-0.022,-0.027,-0.0389,-0.0385,-0.0312,0,0,0,0,0,0,0.035,0.0395,0.042,0.0487,0.0527,0.0594,0.0635,0.0651,0.065,0.0652,0.0534,0.049,0.0262,0.0387,0.0038,-0.0011,-0.0063,-0.0324,-0.0327,-0.0392,-0.0388,-0.0384,-0.0308,0,0,0,0,0]}]]